"Pseudo-MPEC" for P110hDG

Created 2020 May 27 10:07:16 UT using Find_Orb

Click here for an explanation of pseudo-MPECs

 
 Astrometry: 
     P110hDG  C2020 05 15hp@57MHF7f$Agl1i.,`C*Astrometry6XhItikW2fGredacted;$F51
     P110hDG  C2020 05 159I$PLkUmX!YclickG0?--Ixhere?lGvfj81$w#\7LaAR,PdRYfxMF51
     P110hDG  C2020 05 15#!KCGM?3=1EsiBP3#gU/sfor_/7kB#explanation-tQ1PV.w)'1F51

Station data:
(F51) Pan-STARRS 1, Haleakala  (N20.707235 W156.255910)  US/Hawaii.
   Observers N. Primak, A. Schultz, S. Watters, J. Thiel, T. Goggia. Measurer
   PS1 Science Consortium. 1.8-m Ritchey-Chrétien + CCD.

Orbital elements:  P110hDG
   Perihelion 2020 Jun 3.438015 +/- 39.3 TT = 10:30:44 (JD 2459003.938015)
Epoch 2020 May 15.0 TT = JDT 2458984.5   Earth MOID: 0.0105   AutoNEOCP
M 343.80928833 +/- 18               (J2000 ecliptic)
n   0.83294059 +/- 0.376            Peri.  359.39767 +/- 110
a   1.11873363 +/- 0.336            Node   254.01937 +/- 60
e   0.0835054 +/- 0.246             Incl.    0.08499 +/- 0.54
P   1.18/432.20d           H 30.3   G  0.15   U 12.1  SR
q 1.02531326 +/- 0.207    Q 1.21215400 +/- 47.6
From 3 observations 2020 May 15 (31.8 min); mean residual 0".17
Residuals in arcseconds: 
200515 F51  .10-  .14-    200515 F51  .20+  .27+    200515 F51  .10-  .14-    

Ephemerides (geocentric):
Date (UTC) HH   RA              Dec         delta   r     elong  mag " sig PA
---- -- -- --  -------------   -----------  ------ ------ -----  --- ---- ---
2020 05 27 10  17 21 17.951   -24 12 06.79  .01271 1.0256 165.1 21.7  55d 166
2020 05 27 11  17 21 56.746   -24 12 26.45  .01270 1.0256 165.0 21.7  55d 166
2020 05 27 12  17 22 35.602   -24 12 45.51  .01269 1.0256 164.9 21.7  55d 166
2020 05 27 13  17 23 14.518   -24 13 03.98  .01268 1.0256 164.8 21.7  55d 166
2020 05 27 14  17 23 53.495   -24 13 21.85  .01267 1.0256 164.7 21.7  55d 166
2020 05 27 15  17 24 32.532   -24 13 39.12  .01266 1.0256 164.5 21.7  56d 166
2020 05 27 16  17 25 11.628   -24 13 55.79  .01266 1.0256 164.4 21.7  56d 166
2020 05 27 17  17 25 50.783   -24 14 11.85  .01265 1.0256 164.3 21.7  56d 166
2020 05 27 18  17 26 29.997   -24 14 27.31  .01264 1.0256 164.2 21.7  56d 166
2020 05 27 19  17 27 09.267   -24 14 42.15  .01263 1.0255 164.1 21.7  56d 166
2020 05 27 20  17 27 48.596   -24 14 56.37  .01262 1.0255 164.0 21.7  56d 166
2020 05 27 21  17 28 27.980   -24 15 09.98  .01261 1.0255 163.9 21.7  56d 166
2020 05 27 22  17 29 07.421   -24 15 22.97  .01260 1.0255 163.8 21.7  56d 166
2020 05 27 23  17 29 46.917   -24 15 35.34  .01259 1.0255 163.7 21.7  56d 166
2020 05 28 00  17 30 26.468   -24 15 47.08  .01258 1.0255 163.6 21.7  56d 166
2020 05 28 01  17 31 06.074   -24 15 58.19  .01257 1.0255 163.5 21.7  56d 166
2020 05 28 02  17 31 45.733   -24 16 08.67  .01256 1.0255 163.3 21.7  56d 166
2020 05 28 03  17 32 25.446   -24 16 18.51  .01256 1.0255 163.2 21.7  56d 166
2020 05 28 04  17 33 05.211   -24 16 27.72  .01255 1.0255 163.1 21.7  56d 166
2020 05 28 05  17 33 45.029   -24 16 36.29  .01254 1.0255 163.0 21.7  56d 166
2020 05 28 06  17 34 24.898   -24 16 44.21  .01253 1.0255 162.9 21.7  56d 166
2020 05 28 07  17 35 04.817   -24 16 51.49  .01252 1.0254 162.8 21.7  56d 166
2020 05 28 08  17 35 44.787   -24 16 58.13  .01251 1.0254 162.7 21.7  56d 166
2020 05 28 09  17 36 24.807   -24 17 04.11  .01251 1.0254 162.6 21.7  56d 166
2020 05 28 10  17 37 04.876   -24 17 09.44  .01250 1.0254 162.5 21.7  56d 166
2020 05 28 11  17 37 44.993   -24 17 14.12  .01249 1.0254 162.3 21.7  56d 166
2020 05 28 12  17 38 25.158   -24 17 18.14  .01248 1.0254 162.2 21.7  56d 166
2020 05 28 13  17 39 05.370   -24 17 21.50  .01247 1.0254 162.1 21.7  56d 166
2020 05 28 14  17 39 45.629   -24 17 24.20  .01247 1.0254 162.0 21.7  56d 166
2020 05 28 15  17 40 25.934   -24 17 26.23  .01246 1.0254 161.9 21.7  56d 166
2020 05 28 16  17 41 06.284   -24 17 27.60  .01245 1.0254 161.8 21.7  56d 166
2020 05 28 17  17 41 46.679   -24 17 28.30  .01244 1.0254 161.7 21.7  56d 166
2020 05 28 18  17 42 27.118   -24 17 28.33  .01244 1.0254 161.6 21.7  56d 166
2020 05 28 19  17 43 07.600   -24 17 27.69  .01243 1.0254 161.4 21.7  56d 166
2020 05 28 20  17 43 48.125   -24 17 26.37  .01242 1.0253 161.3 21.8  56d 166
2020 05 28 21  17 44 28.692   -24 17 24.37  .01242 1.0253 161.2 21.8  56d 166
2020 05 28 22  17 45 09.300   -24 17 21.70  .01241 1.0253 161.1 21.8  57d 166
2020 05 28 23  17 45 49.949   -24 17 18.34  .01240 1.0253 161.0 21.8  57d 166
2020 05 29 00  17 46 30.638   -24 17 14.31  .01239 1.0253 160.9 21.8  57d 166
2020 05 29 01  17 47 11.367   -24 17 09.58  .01239 1.0253 160.8 21.8  57d 166
2020 05 29 02  17 47 52.134   -24 17 04.18  .01238 1.0253 160.6 21.8  57d 166
2020 05 29 03  17 48 32.939   -24 16 58.08  .01237 1.0253 160.5 21.8  57d 166
2020 05 29 04  17 49 13.782   -24 16 51.29  .01237 1.0253 160.4 21.8  57d 166
2020 05 29 05  17 49 54.661   -24 16 43.82  .01236 1.0253 160.3 21.8  57d 166
2020 05 29 06  17 50 35.576   -24 16 35.64  .01236 1.0253 160.2 21.8  57d 166
2020 05 29 07  17 51 16.527   -24 16 26.78  .01235 1.0253 160.1 21.8  57d 166
2020 05 29 08  17 51 57.512   -24 16 17.22  .01234 1.0253 160.0 21.8  57d 166
2020 05 29 09  17 52 38.531   -24 16 06.96  .01234 1.0252 159.8 21.8  57d 166